Location: Emory University Observatory
(33.7903°N, 84.3267°W)
Time: 09:02:03
(UTC-05:00)

N. Korean satellite - Pass Details

Date: 09 October 2017
Orbit: 461 x 513 km, 97.2° (Epoch: 16 December)

Event Time Altitude Azimuth Distance (km) Brightness Sun altitude
Rises 19:46:08 0° 168° (SSE) 2,575 10.2 -8.2°
Reaches altitude 10° 19:48:13 10° 169° (S) 1,688 9.2 -8.6°
Maximum altitude 19:51:51 86° 258° (WSW) 496 6.6 -9.4°
Drops below altitude 10° 19:55:27 10° 348° (NNW) 1,669 9.4 -10.1°
Sets 19:57:30 0° 349° (NNW) 2,543 10.4 -10.5°
